GW4795 Weather Reports


time (UTC)temp
F
wind
direction
speed
knots
gust
knots
rain 1hr
in
rain 24hr
in
rain mn
in
humidity
%
barometer
mb
20260903213026 66 189 1.7 6.1 0.00 0.14 0.02 58 1010.6
20260903212510 66 202 0.9 6.1 0.00 0.14 0.02 58 1010.5
20260903212009 66 152 1.7 6.1 0.00 0.14 0.02 58 1010.6
20260903211523 65 189 0.9 7.0 0.00 0.14 0.02 58 1010.5
20260903211012 65 182 1.7 7.0 0.00 0.14 0.02 58 1010.5
20260903210504 65 123 1.7 6.1 0.00 0.14 0.02 58 1010.4
20260903210008 65 159 1.7 4.3 0.00 0.14 0.02 57 1010.4
20260903205504 65 124 1.7 4.3 0.00 0.14 0.02 56 1010.4
20260903205004 65 347 0.0 3.5 0.00 0.14 0.02 58 1010.4
20260903204510 65 96 1.7 5.2 0.00 0.14 0.02 57 1010.3
20260903204007 65 151 1.7 7.8 0.00 0.14 0.02 58 1010.3
20260903203507 65 127 2.6 7.8 0.00 0.14 0.02 56 1010.3
20260903203016 65 114 0.9 3.5 0.00 0.14 0.02 58 1010.3
20260903202510 65 118 1.7 3.5 0.00 0.14 0.02 57 1010.3
20260903202013 65 91 0.9 3.5 0.00 0.14 0.02 59 1010.4
20260903201522 65 132 1.7 7.0 0.00 0.14 0.02 59 1010.4
20260903201010 64 213 0.9 7.0 0.00 0.14 0.02 60 1010.4
20260903200512 64 148 1.7 7.0 0.00 0.14 0.02 60 1010.5
20260903200026 64 146 1.7 7.0 0.00 0.14 0.02 60 1010.5
20260903195503 64 121 2.6 7.0 0.00 0.14 0.02 60 1010.5
20260903195004 64 148 1.7 7.0 0.00 0.14 0.02 60 1010.5
20260903194509 64 180 3.5 8.7 0.00 0.14 0.02 61 1010.5
20260903194013 64 125 1.7 8.7 0.00 0.14 0.02 62 1010.4
20260903193505 64 148 2.6 7.8 0.00 0.14 0.02 63 1010.4
20260903193017 63 181 1.7 7.8 0.00 0.14 0.02 64 1010.3
20260903192506 63 153 3.5 7.8 0.00 0.14 0.02 64 1010.3
20260903192006 63 184 1.7 7.0 0.00 0.14 0.02 63 1010.3
20260903191524 63 180 2.6 7.0 0.00 0.14 0.02 63 1010.2
20260903191010 63 78 1.7 5.2 0.00 0.14 0.02 62 1010.1
20260903190511 63 136 0.9 6.1 0.00 0.14 0.02 63 1010.1
20260903190026 64 128 1.7 7.0 0.00 0.14 0.02 62 1010.1
20260903185515 64 163 2.6 7.0 0.00 0.14 0.02 61 1010.0
20260903185014 64 189 0.9 5.2 0.00 0.14 0.02 61 1010.0
20260903184528 64 157 2.6 6.1 0.00 0.14 0.02 62 1010.0
20260903184003 64 156 0.9 6.1 0.00 0.14 0.02 63 1010.1
20260903183505 64 171 3.5 6.1 0.00 0.14 0.02 63 1010.0
20260903183013 64 162 0.9 5.2 0.00 0.14 0.02 62 1010.0
20260903182506 64 138 1.7 5.2 0.00 0.14 0.02 62 1010.0
20260903182008 65 146 0.9 7.0 0.00 0.14 0.02 63 1009.9
20260903181517 65 140 1.7 7.8 0.00 0.14 0.02 64 1010.0
20260903181010 64 156 2.6 7.8 0.00 0.14 0.02 64 1009.9
20260903180511 64 123 1.7 7.0 0.00 0.14 0.02 65 1009.9
20260903180024 63 182 1.7 6.1 0.00 0.14 0.02 67 1009.8
20260903175512 63 143 1.7 6.1 0.00 0.14 0.02 68 1009.8
20260903175013 63 98 0.9 5.2 0.00 0.14 0.02 67 1009.8
20260903174535 63 137 1.7 5.2 0.00 0.14 0.02 67 1009.7
20260903174014 63 126 1.7 5.2 0.00 0.14 0.02 69 1009.8
20260903173520 62 115 0.9 5.2 0.00 0.14 0.02 74 1009.8
20260903173009 62 169 0.9 6.1 0.00 0.14 0.02 72 1009.8
20260903172505 61 52 0.9 6.1 0.00 0.14 0.02 74 1009.9
20260903172005 61 121 0.9 4.3 0.00 0.14 0.02 76 1009.9
20260903171519 60 112 0.9 4.3 0.00 0.14 0.02 79 1009.9
20260903171006 60 128 0.9 3.5 0.00 0.14 0.02 78 1009.9
20260903170512 59 89 0.9 3.5 0.00 0.14 0.02 78 1009.9
20260903170029 59 105 1.7 3.5 0.00 0.14 0.02 79 1009.9
20260903165514 59 84 0.9 2.6 0.00 0.14 0.02 80 1009.9
20260903165016 59 107 0.9 2.6 0.00 0.14 0.02 82 1009.9
20260903164528 58 119 0.9 1.7 0.00 0.14 0.02 83 1009.8
20260903164013 58 89 0.0 1.7 0.00 0.14 0.02 83 1009.9
20260903163516 58 83 0.0 1.7 0.00 0.14 0.02 83 1009.8
20260903163034 58 115 0.9 1.7 0.00 0.14 0.02 83 1009.8
20260903162516 58 96 0.0 4.3 0.00 0.14 0.02 82 1009.8
20260903162016 58 77 0.9 4.3 0.00 0.14 0.02 81 1009.9
20260903161511 58 74 0.9 5.2 0.00 0.14 0.02 82 1010.0
20260903161006 58 78 0.9 5.2 0.00 0.14 0.02 81 1009.8
20260903160509 58 92 1.7 5.2 0.00 0.14 0.02 81 1009.9
20260903160019 58 91 0.9 5.2 0.00 0.14 0.02 82 1009.8
20260903155512 58 91 0.9 3.5 0.00 0.14 0.02 83 1009.9
20260903155010 57 84 1.7 3.5 0.00 0.14 0.02 84 1009.8
20260903154526 57 61 1.7 3.5 0.00 0.14 0.02 84 1009.8
20260903154015 56 130 0.0 2.6 0.00 0.14 0.02 88 1009.8
20260903153513 56 117 0.9 2.6 0.00 0.14 0.02 87 1009.8
20260903153030 56 69 0.9 1.7 0.00 0.14 0.02 87 1009.8
20260903152516 55 138 0.9 2.6 0.00 0.14 0.02 87 1009.8
20260903152017 55 74 0.9 2.6 0.00 0.14 0.02 87 1009.7
20260903151532 55 80 0.0 3.5 0.00 0.14 0.02 86 1009.8
20260903151018 55 121 1.7 7.0 0.00 0.14 0.02 86 1009.8
20260903150510 55 107 1.7 7.0 0.01 0.14 0.02 86 1009.8
20260903150016 55 98 1.7 7.0 0.01 0.14 0.02 85 1009.8
20260903145510 55 63 1.7 7.0 0.01 0.14 0.02 86 1009.8
20260903145011 55 86 2.6 7.0 0.01 0.14 0.02 85 1009.7
20260903144523 55 69 2.6 5.2 0.01 0.14 0.02 86 1009.8
20260903144011 55 68 0.9 6.1 0.01 0.14 0.02 87 1009.7
20260903143503 54 119 0.9 5.2 0.01 0.14 0.02 86 1009.7
20260903143005 54 89 1.7 4.3 0.01 0.14 0.02 87 1009.6
20260903142504 54 62 0.9 3.5 0.01 0.14 0.02 87 1009.6
20260903142004 54 90 1.7 3.5 0.01 0.14 0.02 87 1009.5
20260903141512 54 91 2.6 3.5 0.01 0.14 0.02 87 1009.5
20260903141004 54 110 0.9 3.5 0.01 0.14 0.02 88 1009.4
20260903140503 54 84 0.0 2.6 0.00 0.13 0.01 89 1009.5
20260903140028 54 128 0.0 2.6 0.00 0.13 0.01 89 1009.5
20260903135507 54 51 0.0 2.6 0.00 0.13 0.01 90 1009.4
20260903135008 54 107 0.0 1.7 0.00 0.13 0.01 90 1009.5
20260903134521 54 74 0.0 1.7 0.00 0.13 0.01 90 1009.6
20260903134012 54 24 0.0 3.5 0.00 0.13 0.01 90 1009.6
20260903133502 54 76 1.7 3.5 0.00 0.13 0.01 90 1009.6
20260903133004 54 71 0.9 2.6 0.00 0.13 0.01 90 1009.5
20260903132503 54 136 0.9 3.5 0.00 0.13 0.01 90 1009.6
20260903132003 54 75 0.9 2.6 0.00 0.13 0.01 90 1009.4
20260903131509 54 112 0.9 2.6 0.00 0.13 0.01 91 1009.2
20260903131004 54 121 0.9 2.6 0.00 0.13 0.01 91 1009.2
20260903130509 53 73 0.0 5.2 0.00 0.13 0.01 91 1009.1
20260903130012 53 90 0.0 5.2 0.00 0.13 0.01 91 1009.1
20260903125504 53 94 0.9 6.1 0.00 0.13 0.01 91 1009.1
20260903125008 53 85 0.9 6.1 0.00 0.13 0.01 91 1009.0
20260903124524 53 20 0.9 2.6 0.00 0.13 0.01 91 1009.0
20260903124008 53 98 0.0 1.7 0.00 0.13 0.01 91 1009.0
20260903123508 53 136 0.0 1.7 0.00 0.13 0.01 91 1009.0
20260903123029 53 97 0.0 1.7 0.00 0.13 0.01 91 1009.1
20260903122510 53 138 0.0 1.7 0.00 0.13 0.01 91 1009.1
20260903122002 53 138 0.0 1.7 0.00 0.13 0.01 91 1009.0
20260903121507 53 137 0.0 1.7 0.00 0.13 0.01 91 1009.0
20260903121006 53 136 0.9 2.6 0.00 0.13 0.01 91 1008.9
20260903120504 53 138 0.9 2.6 0.00 0.13 0.01 91 1008.9
20260903120008 53 66 0.9 1.7 0.00 0.13 0.01 91 1008.8
20260903115505 53 80 0.9 1.7 0.00 0.13 0.01 91 1008.8
20260903115006 53 118 0.9 3.5 0.00 0.13 0.01 91 1008.8
20260903114517 53 107 0.0 3.5 0.00 0.13 0.01 91 1008.8
20260903114009 53 98 0.0 4.3 0.00 0.13 0.01 91 1008.8
20260903113509 53 136 0.9 4.3 0.00 0.13 0.01 91 1008.8
20260903113018 53 119 0.0 3.5 0.00 0.13 0.01 91 1008.8
20260903112511 53 89 0.9 3.5 0.00 0.13 0.01 91 1008.7
20260903112010 53 78 0.9 3.5 0.00 0.13 0.01 91 1008.8
20260903111533 53 134 0.9 3.5 0.00 0.13 0.01 91 1008.8
20260903111012 53 72 0.9 3.5 0.00 0.13 0.01 91 1008.9
20260903110504 53 81 0.9 5.2 0.00 0.13 0.01 91 1008.9
20260903110008 53 98 1.7 5.2 0.00 0.13 0.01 91 1008.7
20260903105506 53 61 0.9 5.2 0.00 0.13 0.01 91 1008.6
20260903105005 53 77 0.9 3.5 0.00 0.13 0.01 91 1008.7
20260903104510 53 67 1.7 3.5 0.00 0.13 0.01 91 1008.7
20260903104009 53 71 1.7 3.5 0.00 0.13 0.01 91 1008.7
20260903103511 53 78 1.7 3.5 0.00 0.13 0.01 91 1008.7
20260903103016 53 72 0.9 3.5 0.00 0.13 0.01 91 1008.8
20260903102510 53 80 0.9 3.5 0.00 0.13 0.01 91 1008.7
20260903102012 53 113 0.9 2.6 0.00 0.13 0.01 91 1008.7
20260903101526 53 96 0.9 3.5 0.00 0.13 0.01 91 1008.6
20260903101012 53 113 0.9 3.5 0.00 0.13 0.01 91 1008.6
20260903100511 53 86 1.7 3.5 0.00 0.13 0.01 91 1008.5
20260903100032 53 117 0.0 1.7 0.00 0.13 0.01 91 1008.6
20260903095503 53 94 0.0 2.6 0.00 0.13 0.01 91 1008.5
20260903095003 53 100 0.0 2.6 0.00 0.13 0.01 90 1008.6
20260903094514 53 130 0.9 3.5 0.00 0.13 0.01 90 1008.6
20260903094007 53 73 1.7 5.2 0.01 0.13 0.01 90 1008.5
20260903093506 53 112 1.7 7.0 0.01 0.13 0.01 90 1008.6
20260903093019 53 104 0.9 7.0 0.01 0.13 0.01 90 1008.6
20260903092512 53 85 1.7 3.5 0.01 0.13 0.01 90 1008.5
20260903092009 53 90 1.7 3.5 0.01 0.13 0.01 90 1008.5
20260903091524 53 77 0.0 2.6 0.01 0.13 0.01 90 1008.5
20260903091011 53 121 0.9 3.5 0.01 0.13 0.01 89 1008.5
20260903090511 53 142 0.9 3.5 0.01 0.13 0.01 89 1008.6
20260903090034 53 63 0.9 2.6 0.01 0.13 0.01 89 1008.5
20260903085511 53 119 0.0 2.6 0.01 0.13 0.01 89 1008.5
20260903085012 53 73 0.9 2.6 0.01 0.13 0.01 88 1008.5
20260903084531 53 99 0.9 2.6 0.01 0.13 0.01 88 1008.5
20260903084003 54 87 0.9 2.6 0.00 0.12 0.00 88 1008.4
20260903083507 54 132 0.9 2.6 0.00 0.12 0.00 88 1008.4
20260903083014 54 123 0.0 1.7 0.00 0.12 0.00 88 1008.4
20260903082512 54 130 0.0 1.7 0.00 0.12 0.00 88 1008.3
20260903082008 54 127 0.0 1.7 0.00 0.12 0.00 88 1008.3
20260903081519 53 78 0.0 1.7 0.00 0.12 0.00 88 1008.3
20260903081015 53 89 0.0 3.5 0.00 0.12 0.00 88 1008.3
20260903080509 53 36 0.9 3.5 0.00 0.12 0.00 88 1008.3
20260903080028 53 25 0.9 7.0 0.00 0.12 0.00 88 1008.3
20260903075512 54 43 1.7 7.0 0.00 0.12 0.00 88 1008.3
20260903075012 54 105 0.9 2.6 0.00 0.12 0.00 88 1008.3
20260903074528 54 54 0.0 6.1 0.00 0.12 0.00 88 1008.2
20260903074014 54 55 1.7 6.1 0.00 0.12 0.00 88 1008.2
20260903073516 54 73 2.6 6.1 0.00 0.12 0.00 88 1008.2
20260903073030 54 74 0.9 4.3 0.00 0.12 0.00 88 1008.2
20260903072504 54 98 0.0 4.3 0.00 0.12 0.00 88 1008.1
20260903072009 54 92 1.7 4.3 0.00 0.12 0.00 88 1008.1
20260903071518 54 78 0.0 3.5 0.00 0.12 0.00 88 1008.1
20260903071011 54 69 0.9 3.5 0.00 0.12 0.00 87 1008.1
20260903070511 54 27 0.9 3.5 0.00 0.12 0.00 88 1008.1
20260903070026 54 90 0.9 2.6 0.00 0.12 0.00 87 1008.1
20260903065512 54 11 0.0 3.5 0.00 0.12 0.12 88 1008.1
20260903065012 54 89 0.9 5.2 0.00 0.12 0.12 88 1008.1
20260903064527 55 98 1.7 5.2 0.00 0.12 0.12 88 1008.0
20260903064012 55 101 0.9 5.2 0.00 0.12 0.12 88 1008.0
20260903063514 55 81 0.0 2.6 0.00 0.12 0.12 87 1008.0
20260903063041 55 57 0.0 1.7 0.00 0.12 0.12 87 1008.0
20260903062514 55 40 0.0 3.5 0.00 0.12 0.12 87 1007.9
20260903062018 55 103 0.9 3.5 0.00 0.12 0.12 87 1007.9
20260903061537 55 95 0.9 3.5 0.01 0.12 0.12 87 1007.9
20260903061009 55 80 1.7 3.5 0.01 0.12 0.12 87 1008.0
20260903060510 55 52 0.0 3.5 0.01 0.12 0.12 87 1007.9
20260903060048 55 87 1.7 3.5 0.01 0.12 0.12 87 1007.9
20260903055513 55 61 0.9 3.5 0.01 0.12 0.12 87 1008.0
20260903055013 55 77 0.0 3.5 0.01 0.12 0.12 87 1008.0
20260903054532 56 71 0.0 5.2 0.01 0.12 0.12 87 1008.0
20260903054014 56 109 0.9 5.2 0.01 0.12 0.12 87 1008.0
20260903053504 56 75 1.7 3.5 0.01 0.12 0.12 88 1008.1
20260903053006 56 87 0.0 5.2 0.01 0.12 0.12 87 1008.1
20260903052507 56 79 0.0 5.2 0.01 0.12 0.12 88 1008.0
20260903052006 56 92 0.9 5.2 0.01 0.12 0.12 88 1008.0
20260903051510 56 54 0.9 4.3 0.00 0.11 0.11 88 1007.9
20260903051008 56 82 1.7 4.3 0.00 0.11 0.11 88 1007.8
20260903050507 56 98 0.9 4.3 0.00 0.11 0.11 88 1007.8
20260903050023 56 80 0.9 5.2 0.00 0.11 0.11 88 1007.9
20260903045509 56 311 1.7 7.0 0.00 0.11 0.11 88 1007.9
20260903045009 56 78 1.7 7.0 0.00 0.11 0.11 88 1007.8
20260903044525 56 82 2.6 6.1 0.00 0.11 0.11 88 1007.7
20260903044004 56 87 0.9 5.2 0.00 0.11 0.11 88 1007.7
20260903043504 56 90 0.9 5.2 0.00 0.11 0.11 88 1007.6
20260903043006 56 68 0.0 5.2 0.00 0.11 0.11 88 1007.6
20260903042515 56 66 0.9 5.2 0.01 0.11 0.11 88 1007.6
20260903042003 56 105 1.7 5.2 0.01 0.11 0.11 88 1007.6
20260903041509 57 61 0.9 5.2 0.01 0.11 0.11 88 1007.6
20260903041006 57 115 0.9 6.1 0.01 0.11 0.11 88 1007.5
20260903040504 57 103 1.7 6.1 0.01 0.11 0.11 88 1007.5
20260903040017 57 154 0.9 6.1 0.01 0.11 0.11 87 1007.4
20260903035507 57 84 2.6 8.7 0.01 0.11 0.11 87 1007.4
20260903035010 57 108 1.7 8.7 0.01 0.11 0.11 87 1007.4
20260903034522 57 108 1.7 7.0 0.01 0.11 0.11 86 1007.4
20260903034010 58 98 2.6 7.0 0.01 0.11 0.11 86 1007.4
20260903033511 58 120 1.7 8.7 0.01 0.11 0.11 85 1007.4
20260903033009 58 138 1.7 8.7 0.01 0.11 0.11 85 1007.3
20260903032507 58 97 0.9 6.1 0.00 0.10 0.10 84 1007.2
20260903032004 58 84 1.7 6.1 0.00 0.10 0.10 84 1007.2
20260903031508 58 144 2.6 7.8 0.00 0.10 0.10 84 1007.1
20260903031003 58 111 2.6 7.8 0.01 0.10 0.10 83 1007.1
20260903030504 58 104 2.6 7.8 0.01 0.10 0.10 84 1006.9
20260903030010 59 136 3.5 7.8 0.01 0.10 0.10 84 1006.8
20260903025507 59 121 1.7 7.8 0.01 0.10 0.10 85 1006.7
20260903025008 59 107 2.6 7.8 0.01 0.10 0.10 85 1006.7
20260903024517 59 84 1.7 9.6 0.01 0.10 0.10 86 1006.6
20260903024009 59 130 4.3 9.6 0.01 0.10 0.10 85 1006.7
20260903023511 59 79 0.9 7.0 0.01 0.10 0.10 85 1006.6
20260903023045 59 99 2.6 7.0 0.01 0.10 0.10 85 1006.5
20260903022512 59 146 1.7 4.3 0.01 0.10 0.10 85 1006.4
20260903022015 59 13 0.9 4.3 0.01 0.10 0.10 85 1006.2
20260903021512 60 89 0.9 6.1 0.02 0.10 0.10 86 1006.1
20260903021007 60 164 1.7 7.0 0.01 0.09 0.09 86 1005.9
20260903020503 60 79 2.6 7.8 0.01 0.09 0.09 86 1005.8
20260903020010 60 90 1.7 7.8 0.01 0.09 0.09 86 1005.9
20260903015504 60 154 2.6 6.1 0.01 0.09 0.09 87 1006.0
20260903015005 60 146 1.7 6.1 0.01 0.09 0.09 88 1006.0
20260903014515 60 132 2.6 6.1 0.01 0.09 0.09 88 1005.9
20260903014010 60 142 1.7 6.1 0.01 0.09 0.09 89 1005.8
20260903013510 60 113 0.9 5.2 0.02 0.09 0.09 90 1005.7
20260903013026 60 118 1.7 5.2 0.02 0.09 0.09 90 1005.7
20260903012512 60 116 0.9 5.2 0.02 0.09 0.09 90 1005.6
20260903012017 60 130 1.7 5.2 0.02 0.09 0.09 91 1005.4
20260903011527 60 140 0.9 3.5 0.01 0.08 0.08 91 1005.4
20260903011014 60 118 1.7 3.5 0.02 0.08 0.08 91 1005.2
20260903010503 60 138 0.9 2.6 0.02 0.08 0.08 91 1005.0
20260903010022 60 139 1.7 3.5 0.02 0.08 0.08 91 1005.0
20260903005504 60 121 1.7 3.5 0.02 0.08 0.08 91 1004.9
20260903005003 60 94 0.9 2.6 0.02 0.08 0.08 90 1004.7
20260903004514 60 113 0.0 2.6 0.03 0.08 0.08 90 1004.5
20260903004008 60 99 0.9 2.6 0.03 0.08 0.08 90 1004.5
20260903003507 60 117 0.0 2.6 0.02 0.07 0.07 91 1004.6
20260903003018 59 48 0.9 3.5 0.02 0.07 0.07 91 1004.6
20260903002512 59 68 0.9 4.3 0.03 0.07 0.07 91 1004.8
20260903002011 59 76 0.9 4.3 0.03 0.07 0.07 90 1004.7
20260903001531 59 24 0.9 4.3 0.03 0.07 0.07 91 1004.8
20260903001017 59 51 0.9 3.5 0.02 0.06 0.06 90 1004.9
20260903000517 59 25 0.9 3.5 0.03 0.06 0.06 90 1005.1
20260903000031 59 69 0.9 2.6 0.03 0.06 0.06 90 1005.3
20260902235516 59 13 0.9 2.6 0.03 0.06 0.06 90 1005.6
20260902235007 59 96 0.0 3.5 0.03 0.06 0.06 89 1005.8
20260902234511 60 144 0.9 3.5 0.03 0.05 0.05 88 1005.9
20260902234006 60 159 0.0 3.5 0.03 0.05 0.05 88 1005.6
20260902233506 60 39 1.7 3.5 0.03 0.05 0.05 87 1005.4
20260902233018 60 81 0.9 6.1 0.03 0.05 0.05 87 1005.4
20260902232512 60 82 1.7 6.1 0.02 0.04 0.04 86 1005.5
20260902232010 60 66 0.9 5.2 0.03 0.04 0.04 86 1005.5
20260902231533 60 93 0.0 3.5 0.03 0.04 0.04 85 1005.5
20260902231012 61 61 0.0 1.7 0.03 0.04 0.04 85 1005.5
20260902230514 61 115 0.0 3.5 0.02 0.03 0.03 83 1005.4
20260902230027 61 86 0.9 4.3 0.02 0.03 0.03 83 1005.3
20260902225514 61 99 1.7 4.3 0.03 0.03 0.03 83 1005.5
20260902225017 61 112 0.9 2.6 0.03 0.03 0.03 82 1005.5
20260902224530 62 71 0.9 2.6 0.02 0.02 0.02 81 1005.4
20260902224017 62 123 0.9 5.2 0.02 0.02 0.02 80 1005.4
20260902223507 62 133 0.9 5.2 0.02 0.02 0.02 79 1005.3
20260902223014 62 159 1.7 3.5 0.02 0.02 0.02 81 1005.2
20260902222506 62 157 1.7 7.0 0.02 0.02 0.02 79 1005.1
20260902222008 62 138 1.7 8.7 0.01 0.01 0.01 76 1005.1
20260902221527 63 181 3.5 8.7 0.01 0.01 0.01 76 1005.0
20260902221012 63 161 4.3 10.4 0.01 0.01 0.01 75 1005.0
20260902220512 64 165 4.3 10.4 0.01 0.01 0.01 75 1004.9
20260902220034 64 166 0.0 1.7 0.01 0.01 0.01 77 1005.0
20260902215514 64 187 0.9 7.0 0.00 0.00 0.00 76 1005.0
20260902215018 64 153 1.7 7.0 0.00 0.00 0.00 74 1005.1
20260902214538 64 128 0.9 7.0 0.00 0.00 0.00 73 1005.0
20260902214016 65 139 2.6 8.7 0.00 0.00 0.00 71 1005.1
20260902213519 65 174 3.5 11.3 0.00 0.00 0.00 70 1005.1